Tracking 28794 objects as of 19-Apr-2024
HD Live streaming from Space Station
objects crossing your sky now

OBJECT A

Track OBJECT A now!
10-day predictions


NORAD ID: 44905
Int'l Code: 2019-096A
Perigee: 1,490.2 km
Apogee: 1,513.0 km
Inclination: 82.5 °
Period: 115.9 minutes
Semi major axis: 7872 km
RCS: Unknown
Launch date: December 26, 2019
Source: Commonwealth of Independent States (former USSR) (CIS)
Launch site: PLESETSK MISSILE AND SPACE COMPLEX (PKMTR)

Note: This is a ROCKET BODY
Your satellite tracking list
Your tracking list is empty




NASA's NSSDC Master Catalog

Two Line Element Set (TLE):
1 44905U 19096A   24110.57690860  .00000054  00000-0  32097-3 0  9999
2 44905  82.5263 213.5133 0014495  78.5455 281.7252 12.42868569195716
Source of the keplerian elements: AFSPC